Location: Agenbach
(47.2667°N, 11.4500°E)
Time: 00:34:30
(UTC+00:00)

Daily predictions for brighter satellites

Satellite Brightness Start Highest point End
(mag) Time Altitude Azimuth Time Altitude Azimuth Time Altitude Azimuth
STARLINK-1268 3.4 00:04:28 46° E 00:04:28 46° E 00:06:56 10° ENE
STARLINK-1301 3.4 00:03:56 55° S 00:04:15 58° SE 00:08:03 10° ENE
STARLINK-1303 3.4 00:05:53 56° SSE 00:06:07 57° SE 00:09:49 10° ENE
Cosmos 1570 Rocket 4.0 00:04:53 36° SSW 00:07:07 89° NW 00:12:26 10° NNE
Cosmos 1400 Rocket 3.6 00:03:11 10° N 00:07:13 48° ENE 00:09:10 26° SE
STARLINK-66 2.8 00:07:08 80° WSW 00:07:18 89° NNE 00:10:31 10° ENE
Cosmos 1709 Rocket 3.9 00:05:05 32° SSW 00:08:05 85° W 00:14:20 10° N
Cosmos 1763 Rocket 3.8 00:05:57 30° SW 00:08:19 56° WNW 00:13:19 10° NNE
Cosmos 2227 Rocket 3.2 00:03:58 10° NW 00:08:47 29° WSW 00:10:11 26° SW
STARLINK-1316 3.1 00:09:23 57° ESE 00:09:23 57° ESE 00:12:08 10° ENE
STARLINK-1312 3.3 00:09:13 56° S 00:09:35 60° SE 00:13:19 10° ENE
STARLINK-1257 3.0 00:10:14 60° ESE 00:10:14 60° ESE 00:13:03 10° ENE
STARLINK-1256 3.0 00:11:11 61° ESE 00:11:11 61° ESE 00:14:00 10° ENE
STARLINK-58 3.6 00:11:42 42° ESE 00:11:42 42° ESE 00:14:17 10° ENE
STARLINK-1213 2.9 00:12:02 63° ESE 00:12:02 63° ESE 00:14:53 10° ENE
STARLINK-1263 2.9 00:12:53 65° ESE 00:12:53 65° ESE 00:15:47 10° ENE
Cosmos 2084 Rocket 3.5 00:08:58 10° NW 00:13:23 64° SW 00:14:58 38° SSE
STARLINK-1259 2.9 00:13:47 67° ESE 00:13:47 67° ESE 00:16:43 10° ENE
STARLINK-1265 2.8 00:14:10 68° ESE 00:14:10 68° ESE 00:17:09 10° ENE
STARLINK-1285 2.8 00:14:38 69° ESE 00:14:38 69° ESE 00:17:36 10° ENE
SL-16 R/B 3.2 00:10:23 11° SE 00:16:02 52° ENE 00:22:01 10° N
Cosmos 2298 Rocket 4.2 00:10:53 10° NNW 00:16:13 74° ENE 00:19:50 21° SSE
STARLINK-1296 2.8 00:16:22 72° SE 00:16:22 72° SE 00:19:25 10° ENE
Cosmos 1758 Rocket 3.6 00:15:28 41° SSW 00:16:55 70° W 00:21:22 10° N
STARLINK-1260 2.7 00:17:14 74° SE 00:17:14 74° SE 00:20:19 10° ENE
STARLINK-1318 2.7 00:18:06 76° SE 00:18:06 76° SE 00:21:13 10° ENE
STARLINK-75 2.9 00:18:02 61° WSW 00:18:32 83° NNW 00:21:47 10° ENE
STARLINK-1275 2.7 00:18:59 77° SSE 00:19:00 77° SSE 00:22:08 10° ENE
STARLINK-48 4.0 00:19:05 39° SSE 00:19:18 39° SE 00:22:57 10° ENE
STARLINK-1309 2.7 00:19:50 78° SSE 00:19:53 78° SSE 00:23:01 10° ENE
STARLINK-1282 2.7 00:20:42 78° S 00:20:47 79° SSE 00:23:55 10° ENE
IRAS Rocket 4.2 00:18:06 27° SSE 00:21:14 85° WSW 00:26:48 10° NNW
STARLINK-1283 3.5 00:20:03 41° SW 00:21:23 78° SSE 00:25:31 10° ENE
STARLINK-1313 2.7 00:21:38 74° WSW 00:21:53 89° SSE 00:25:02 10° ENE
STARLINK-80 3.3 00:21:07 48° SW 00:22:03 77° SSE 00:25:52 10° ENE
CZ-4 R/B 4.5 00:18:16 10° N 00:22:46 45° WNW 00:24:50 27° WSW
STARLINK-1279 2.7 00:22:32 72° WSW 00:22:49 89° WNW 00:25:57 10° ENE
STARLINK-1298 2.7 00:23:16 77° SSW 00:23:27 83° SE 00:26:35 10° ENE
STARLINK-1293 2.7 00:24:09 75° SW 00:24:22 84° SSE 00:27:31 10° ENE
SL-16 R/B 3.5 00:22:44 19° SSE 00:25:45 30° ESE 00:30:37 10° NE
Cosmos 2208 Rocket 4.1 00:23:37 32° SSW 00:26:07 76° WNW 00:31:32 10° NNE
STARLINK-1255 2.7 00:25:54 71° SW 00:26:12 87° SE 00:29:19 10° ENE
STARLINK-22 2.8 00:26:16 60° WSW 00:26:47 88° NNW 00:30:00 10° ENE
STARLINK-1297 3.1 00:26:32 51° SW 00:27:21 78° SSE 00:30:58 10° ENE
STARLINK 1040 4.3 00:26:21 20° WNW 00:27:31 29° NNW 00:29:49 10° NE
STARLINK-1311 2.7 00:28:27 66° W 00:28:46 77° NNW 00:31:44 10° ENE
Cosmos 2285 Rocket 4.3 00:22:44 10° NNW 00:28:51 51° WSW 00:31:54 28° SSW
CZ-2D R/B 2.8 00:26:59 10° NNE 00:31:59 43° E 00:35:02 21° SSE
MOZ.5/SAFIR/RUBIN 5/SL-8 3.9 00:29:16 24° SSE 00:32:01 73° ENE 00:36:40 10° N
USA 81 4.4 00:30:17 30° SW 00:32:40 52° W 00:37:50 10° N
Cosmos-2242 3.3 00:28:58 10° NNW 00:33:06 50° W 00:34:23 36° SW
USA 215 3.4 00:28:06 15° SSE 00:33:29 50° SW 00:39:50 10° WNW
Meteor 2-10 Rocket 4.3 00:28:52 10° NNW 00:33:31 36° W 00:35:15 28° SW
Cosmos 1953 Rocket 3.5 00:33:32 37° SSW 00:35:17 81° W 00:39:42 10° N
Cosmos 2221 3.7 00:31:49 10° N 00:35:56 39° ENE 00:39:27 13° SE
STARLINK-42 3.3 00:36:26 33° W 00:37:34 59° NNW 00:40:40 10° ENE
BREEZE-M R/B 3.3 00:32:02 10° W 00:37:43 62° N 00:40:48 10° ENE
STARLINK-1029 2.8 00:39:04 59° S 00:39:21 63° SSE 00:42:29 10° ENE
STARLINK-34 2.7 00:40:02 62° SW 00:40:29 84° SSE 00:43:34 10° ENE
GP-B 3.1 00:36:21 10° N 00:40:49 81° E 00:42:58 30° S
STARLINK-60 2.9 00:37:46 10° WNW 00:40:58 84° NNE 00:44:09 10° ESE
CZ-4C R/B 3.7 00:38:34 24° SSE 00:41:12 76° ENE 00:45:39 10° N
STARLINK-41 3.3 00:40:11 33° W 00:41:17 57° NNW 00:44:19 10° ENE
Cosmos 1315 Rocket 3.8 00:39:00 10° N 00:42:46 42° ENE 00:45:44 15° SE
Cosmos 1842 Rocket 4.1 00:38:32 10° N 00:42:56 56° ENE 00:46:04 18° SSE
STARLINK-1272 3.2 00:42:02 34° WSW 00:43:25 80° NNW 00:46:58 10° ENE
Cosmos 540 Rocket 3.8 00:41:07 26° SW 00:43:48 54° WNW 00:48:51 10° NNE
STARLINK-62 2.7 00:43:45 55° WSW 00:44:20 89° ESE 00:47:23 10° ENE
Cosmos 2360 Rocket 4.1 00:44:12 10° SE 00:48:10 20° E 00:52:09 10° NE
Helios 1B rocket 4.0 00:45:05 10° N 00:48:28 25° WNW 00:50:24 18° WSW
STARLINK-1277 4.4 00:47:31 30° S 00:48:31 35° SE 00:52:19 10° ENE
STARLINK-1307 3.4 00:46:48 29° WSW 00:48:35 78° NNW 00:52:18 10° ENE
STARLINK-1290 3.4 00:50:11 27° WSW 00:52:06 74° NNW 00:55:50 10° ENE
STARLINK-1276 4.3 00:52:19 31° S 00:53:30 38° SE 00:57:21 10° ENE
Cosmos 2058 4.4 00:50:48 14° SSE 00:53:44 31° E 00:57:29 10° NNE
Shenzhou-11 Module 4.2 00:56:40 11° ESE 00:56:40 11° ESE 00:56:52 10° ESE
Cosmos 1980 Rocket 2.6 00:51:50 23° SW 00:55:18 56° WNW 01:00:53 10° NNE
Cosmos 2074 Rocket 4.0 00:51:22 23° S 00:55:28 89° E 01:01:47 10° N
STARLINK-1305 4.2 00:57:04 31° S 00:58:26 41° SE 01:02:20 10° ENE
STARLINK-1306 4.1 00:57:24 31° S 00:58:52 44° SE 01:02:53 10° ENE
STARLINK-1317 3.7 00:56:33 20° WSW 00:59:06 67° NNW 01:03:00 10° ENE
Cosmos 1455 4.1 00:57:12 10° NW 00:59:32 16° W 01:00:05 15° W
CZ-4B R/B 4.0 00:55:42 10° NNE 01:00:53 56° E 01:04:34 19° S
STARLINK-55 4.2 01:00:33 14° W 01:03:03 40° NNW 01:06:07 10° NE
STARLINK-1274 3.6 01:00:56 21° W 01:03:07 61° NNW 01:06:39 10° ENE
STARLINK-1262 4.1 01:01:53 30° SSW 01:03:25 45° SE 01:07:23 10° ENE
STARLINK-1291 3.8 01:04:15 18° W 01:06:50 61° NNW 01:10:32 10° ENE
Meteor 1-11 4.4 01:03:54 24° SSW 01:07:13 59° WNW 01:12:46 10° N
STARLINK-1300 4.0 01:06:40 29° SSW 01:08:22 48° SE 01:12:22 10° ENE
ADEOS II 3.2 01:05:07 10° NNE 01:10:02 38° E 01:14:39 11° SSE
STARLINK-1264 3.8 01:07:26 17° W 01:10:09 58° NNW 01:13:52 10° ENE
Cosmos 2263 Rocket 2.2 01:05:42 10° NNW 01:11:14 62° WSW 01:15:58 14° S
STARLINK-1295 3.9 01:11:26 28° SSW 01:13:19 52° SE 01:17:21 10° ENE
IRS-1D 4.2 01:08:14 10° NNE 01:13:22 51° E 01:17:31 15° S
NOSS 2-1 (C) 3.0 01:12:04 32° SSW 01:13:30 70° SE 01:17:05 10° NE
STARLINK-1267 3.9 01:10:39 16° W 01:13:31 56° NNW 01:17:13 10° ENE
STARLINK-29 3.0 01:10:33 10° WNW 01:13:45 81° NNE 01:16:56 10° ESE
UNK 3.8 01:11:40 22° S 01:14:28 59° WSW 01:19:01 10° NNW
STARLINK-28 4.4 01:11:39 10° W 01:14:39 35° NNW 01:17:39 10° NE
AQUA 3.9 01:10:19 10° NNE 01:15:07 73° ESE 01:18:24 20° S
SL-4 R/B 2.3 01:10:35 10° WNW 01:15:22 62° SSW 01:19:58 10° SE
STARLINK-64 3.1 01:14:12 27° SW 01:16:00 84° SSE 01:19:36 10° ENE
USA 229 DEB 3.9 01:09:51 10° NW 01:17:05 69° SW 01:24:38 10° SSE
USA 229 3.9 01:09:58 10° NW 01:17:12 69° SW 01:24:45 10° SSE
NOSS 3-1 (C) 4.1 01:10:30 10° NW 01:17:59 64° WSW 01:26:30 10° SSE
STARLINK-1287 3.8 01:16:12 27° SSW 01:18:16 57° SE 01:22:20 10° ENE
NOSS 2-1 (D) 2.9 01:16:50 30° SSW 01:18:23 80° SE 01:22:01 10° NE
NPP 3.6 01:13:37 10° NNE 01:19:04 87° W 01:22:54 20° SSW
ARIANE 5 R/B 4.1 01:15:25 10° NE 01:19:42 28° E 01:23:57 10° SSE
STARLINK-1207 4.0 01:17:09 13° W 01:20:19 52° NNW 01:24:00 10° ENE
Cosmos 2184 Rocket 4.1 01:16:26 21° SSW 01:20:39 63° WNW 01:26:48 10° N
CZ-4C R/B 4.0 01:18:26 10° W 01:23:07 28° NNW 01:28:35 10° NNE
STARLINK-1266 4.1 01:20:25 12° W 01:23:43 51° NNW 01:27:24 10° ENE
BREEZE-M DEB (TANK) 1.6 01:23:14 32° W 01:24:01 82° NNW 01:27:00 10° ENE
Cosmos 1892 3.0 01:21:53 19° S 01:24:28 61° E 01:28:13 10° NNE
STARLINK-33 4.5 01:21:59 10° W 01:24:51 33° NNW 01:27:45 10° NE
NOSS 3-1 (A) 4.1 01:18:39 10° NW 01:26:11 80° SW 01:34:51 10° SSE
STARLINK-1299 3.7 01:24:05 22° SW 01:26:44 74° SSE 01:31:00 10° ENE
STARLINK-1284 4.2 01:23:40 11° W 01:27:08 49° NNW 01:30:48 10° ENE
STARLINK-1302 3.7 01:25:46 23° SW 01:28:12 66° SSE 01:32:20 10° ENE
STARLINK-1320 4.2 01:25:18 10° NW 01:28:19 43° NNE 01:31:19 10° E
BREEZE-M DEB (TANK) 1.8 01:26:20 10° WNW 01:28:40 55° N 01:31:19 10° E
STARLINK-1322 4.2 01:25:39 10° NW 01:28:40 43° NNE 01:31:40 10° E
Cosmos 1610 Rocket 4.5 01:24:10 18° SSW 01:28:54 80° W 01:35:09 10° N
STARLINK-1324 4.2 01:25:58 10° NW 01:28:59 43° NNE 01:31:59 10° E
STARLINK-1294 4.2 01:26:16 10° NW 01:29:18 44° NNE 01:32:20 10° E
STARLINK-1261 4.1 01:26:39 10° NW 01:29:40 43° NNE 01:32:41 10° E
STARLINK-1325 4.1 01:27:01 10° NW 01:30:02 44° NNE 01:33:02 10° E
STARLINK-1333 4.1 01:27:23 10° NW 01:30:24 44° NNE 01:33:24 10° E
Cosmos 1869 3.3 01:26:38 10° NNW 01:30:28 60° W 01:33:00 20° S
STARLINK-1258 4.2 01:26:59 10° W 01:30:35 47° NNW 01:34:15 10° ENE
STARLINK-1334 4.1 01:27:40 10° NW 01:30:41 44° NNE 01:33:41 10° E
STARLINK-1326 4.1 01:27:59 10° NW 01:31:00 44° NNE 01:34:01 10° E
STARLINK-1323 4.1 01:28:22 10° NW 01:31:24 44° NNE 01:34:25 10° E
STARLINK-1349 4.1 01:28:40 10° NW 01:31:42 44° NNE 01:34:42 10° E
STARLINK-1336 4.1 01:28:59 10° NW 01:32:01 45° NNE 01:35:02 10° E
STARLINK-1331 4.1 01:29:22 10° NW 01:32:24 45° NNE 01:35:25 10° E
STARLINK-1344 4.1 01:29:40 10° NW 01:32:42 45° NNE 01:35:43 10° E
STARLINK-1343 4.1 01:30:03 10° NW 01:33:05 45° NNE 01:36:06 10° E
STARLINK-1273 3.6 01:30:32 21° SW 01:33:10 71° SSE 01:37:18 10° ENE
STARLINK-1346 4.1 01:30:19 10° NW 01:33:23 46° NNE 01:36:27 10° E
STARLINK-1328 4.0 01:30:46 10° NW 01:33:49 46° NNE 01:36:49 10° E
Cosmos 2322 Rocket 2.2 01:29:42 19° SSW 01:33:52 82° ESE 01:39:31 10° NNE
STARLINK-1292 4.3 01:30:25 10° W 01:34:02 46° NNW 01:37:41 10° ENE
STARLINK-1354 4.0 01:31:04 10° NW 01:34:06 46° NNE 01:37:07 10° E
STARLINK-1347 4.0 01:31:20 10° NW 01:34:23 46° NNE 01:37:24 10° E
STARLINK-1357 4.0 01:31:47 10° NW 01:34:49 46° NNE 01:37:50 10° E
STARLINK-1335 4.0 01:32:04 10° NW 01:35:06 46° NNE 01:38:08 10° E
STARLINK-1327 4.0 01:32:25 10° NW 01:35:26 46° NNE 01:38:28 10° E
In-Cosmos 22 Rocket 4.2 01:31:02 16° S 01:35:37 86° E 01:41:07 10° NNE
STARLINK-1340 4.0 01:32:43 10° NW 01:35:44 47° NNE 01:38:46 10° E
STARLINK-1356 4.0 01:33:05 10° NW 01:36:08 47° NNE 01:39:10 10° E
STARLINK-1345 4.0 01:33:24 10° NW 01:36:26 47° NNE 01:39:28 10° E
STARLINK-1355 4.0 01:33:45 10° NW 01:36:49 47° NNE 01:39:50 10° E
STARLINK-1321 4.0 01:34:06 10° NW 01:37:09 47° NNE 01:40:11 10° E
STARLINK-1358 3.9 01:34:29 10° NW 01:37:32 48° NNE 01:40:35 10° E
STARLINK-1332 3.9 01:34:46 10° NW 01:37:49 48° NNE 01:40:52 10° E
STARLINK-1288 3.6 01:35:19 20° SW 01:38:08 76° SSE 01:42:17 10° ENE
STARLINK-1348 3.9 01:35:07 10° NW 01:38:10 48° NNE 01:41:13 10° E
STARLINK-61 3.6 01:35:51 22° SW 01:38:14 59° SE 01:42:06 10° ENE
STARLINK-1330 3.9 01:35:27 10° NW 01:38:30 48° NNE 01:41:32 10° E
STARLINK-1363 3.9 01:35:46 10° NW 01:38:49 48° NNE 01:41:52 10° E
STARLINK-1337 3.9 01:36:09 10° NW 01:39:12 49° NNE 01:42:15 10° E
STARLINK-1342 3.9 01:36:28 10° NW 01:39:31 49° NNE 01:42:34 10° E
STARLINK-1268 4.3 01:36:52 10° W 01:39:44 35° NNW 01:42:37 10° NE
STARLINK-1364 3.9 01:36:48 10° NW 01:39:52 49° NNE 01:42:54 10° E
STARLINK-1376 3.9 01:37:08 10° NW 01:40:11 49° NNE 01:43:14 10° E
STARLINK-1360 3.9 01:37:29 10° NW 01:40:33 50° NNE 01:43:35 10° E
STARLINK-1361 3.9 01:37:50 10° NW 01:40:52 50° NNE 01:43:55 10° E
Resurs 1-4 Rocket 2.6 01:35:47 10° N 01:40:55 50° WNW 01:44:54 16° SW
STARLINK-1289 4.4 01:37:18 10° W 01:40:55 44° NNW 01:44:33 10° ENE
STARLINK-1367 3.8 01:38:04 10° WNW 01:41:11 51° NNE 01:44:16 10° E
STARLINK-1366 3.8 01:38:28 10° NW 01:41:32 50° NNE 01:44:35 10° E
STARLINK-1301 4.5 01:39:13 10° W 01:42:55 43° NNW 01:46:38 10° ENE
STARLINK-1308 3.6 01:40:08 18° SW 01:43:09 82° SSE 01:47:19 10° ENE
Cosmos 1076 Rocket 3.5 01:39:51 17° S 01:43:14 83° W 01:47:38 10° N
STARLINK-1303 4.5 01:40:49 10° W 01:44:25 42° NNW 01:48:02 10° ENE
STARLINK-1316 4.4 01:42:08 10° W 01:45:02 34° NNW 01:47:56 10° NE
Cosmos 2151 4.0 01:40:59 10° SSE 01:45:02 44° E 01:49:09 10° NNE
Cosmos 1125 Rocket 4.2 01:40:21 10° NW 01:45:03 35° WSW 01:48:54 14° SSW
STARLINK-1257 4.5 01:43:01 10° W 01:45:55 33° NNW 01:48:49 10° NE
STARLINK-1256 4.5 01:44:01 10° W 01:46:54 33° NNW 01:49:47 10° NE
H-2A R/B 3.7 01:43:00 10° SE 01:47:06 37° ENE 01:51:16 10° N
STARLINK-58 4.2 01:44:16 10° W 01:47:16 39° NNW 01:50:18 10° NE
STARLINK-1213 4.5 01:44:54 10° W 01:47:47 33° NNW 01:50:40 10° NE
STARLINK-1263 4.5 01:45:48 10° W 01:48:40 33° NNW 01:51:33 10° NE
STARLINK-1338 4.4 01:44:57 10° WNW 01:48:52 52° NNE 01:52:47 10° E
STARLINK-79 4.5 01:46:45 17° S 01:48:54 30° SE 01:52:06 10° ENE
STARLINK-52 2.9 01:45:53 10° WNW 01:49:04 61° SSW 01:52:14 10° SE
STARLINK-78 4.4 01:48:20 17° SSW 01:50:32 31° SE 01:53:46 10° ENE
Cosmos 962 Rocket 4.5 01:44:45 12° S 01:50:35 89° W 01:56:51 10° N
STARLINK-57 4.3 01:49:58 17° SSW 01:52:12 33° SE 01:55:30 10° ENE
Cosmos 1408 2.6 01:49:31 14° S 01:52:41 80° E 01:56:22 10° NNE
STARLINK-1304 3.6 01:49:41 15° WSW 01:53:05 89° NNW 01:57:15 10° ENE
STARLINK-49 4.3 01:51:26 16° SSW 01:53:43 32° SE 01:57:00 10° ENE
Cosmos 2154 Rocket 4.3 01:49:51 15° SSW 01:55:01 54° WNW 02:01:08 10° N
STARLINK-27 4.3 01:53:02 16° SSW 01:55:24 33° SE 01:58:42 10° ENE
GEOS 3 Rocket 3.8 01:51:24 10° SSE 01:56:27 51° WSW 02:01:36 10° NW
STARLINK-74 4.3 01:54:35 16° SSW 01:57:00 34° SE 02:00:19 10° ENE
STARLINK-1371 4.2 01:53:13 10° WNW 01:57:08 56° NNE 02:01:02 10° E
STARLINK-48 4.1 01:54:02 10° W 01:57:51 53° NNW 02:01:41 10° ENE
STARLINK-39 4.2 01:56:10 16° SSW 01:58:37 35° SE 02:01:58 10° ENE
Cosmos 1825 2.5 01:55:34 10° S 01:59:16 62° E 02:03:00 10° NNE
STARLINK-1278 3.8 01:55:21 12° WSW 01:59:17 76° NNW 02:03:33 10° ENE
Cosmos 2237 4.4 01:54:31 12° SSW 01:59:44 73° ESE 02:05:28 10° NNE
SL-16 R/B 3.4 01:55:29 14° SSW 01:59:53 30° W 02:05:16 10° NW
STARLINK-31 4.2 01:57:45 16° SSW 02:00:16 37° SE 02:03:39 10° ENE
STARLINK-1280 3.8 01:57:08 12° WSW 02:01:08 74° NNW 02:05:24 10° ENE
STARLINK-1341 4.2 01:57:36 10° WNW 02:01:32 59° NNE 02:05:27 10° ESE
SL-08 R/B 3.2 01:56:55 10° SSE 02:01:32 83° WSW 02:06:11 10° NNW
STARLINK-69 4.0 01:59:20 16° SSW 02:01:54 41° SE 02:05:18 10° ENE
STARLINK-21 4.0 02:00:55 15° SSW 02:03:33 39° SE 02:06:57 10° ENE
IRS-P3 4.1 01:59:06 10° NNE 02:04:28 85° WNW 02:09:47 10° SSW
STARLINK-45 3.9 02:02:35 15° SSW 02:05:18 44° SE 02:08:47 10° ENE
Cosmos 1844 Rocket 2.8 02:00:11 10° NNW 02:05:50 83° ENE 02:11:25 10° SSE
STARLINK-1374 4.1 02:02:04 10° WNW 02:06:03 62° NNE 02:10:01 10° ESE
NOSS 2-1 (E) 4.0 02:04:58 12° WSW 02:07:56 39° NW 02:11:33 10° NNE
STARLINK-76 3.9 02:05:36 14° SSW 02:08:25 43° SE 02:11:53 10° ENE
STARLINK-70 3.8 02:05:59 14° SSW 02:08:51 46° SE 02:12:24 10° ENE
SL-16 R/B 2.7 02:04:36 12° SW 02:09:37 49° NW 02:15:08 10° NNE
STARLINK-1286 3.8 02:05:37 10° WSW 02:09:46 72° NNW 02:13:57 10° ENE
STARLINK-23 3.9 02:07:11 14° SSW 02:10:02 44° SE 02:13:31 10° ENE
STARLINK-1339 4.0 02:06:13 10° WNW 02:10:11 65° NNE 02:14:07 10° ESE
STARLINK-32 3.8 02:08:37 14° SW 02:11:29 45° SE 02:14:56 10° ENE
CZ-2D R/B 3.3 02:07:24 10° N 02:11:51 29° WNW 02:16:17 10° WSW
STARLINK-1281 3.8 02:08:52 10° WSW 02:13:01 71° NNW 02:17:10 10° ENE
Cosmos 2221 4.0 02:09:54 10° NW 02:13:14 22° W 02:16:17 11° SW
STARLINK-40 3.8 02:10:18 13° SW 02:13:16 47° SE 02:16:47 10° ENE
COSMOS 2428 4.2 02:09:17 10° SSE 02:14:13 31° ESE 02:19:08 10° NE
STARLINK-1377 3.9 02:10:45 10° WNW 02:14:45 68° NNE 02:18:45 10° ESE
STARLINK-44 3.7 02:11:49 13° SW 02:14:51 49° SE 02:18:22 10° ENE
CZ-4C R/B 4.0 02:11:31 10° SSE 02:15:04 53° ENE 02:18:37 10° N
STARLINK-1051 4.4 02:11:51 12° SSW 02:15:24 40° SE 02:19:18 10° ENE
STARLINK-1029 4.4 02:12:30 10° W 02:15:27 34° NNW 02:18:24 10° NE
Cosmos 773 Rocket 4.1 02:11:09 10° SSW 02:16:25 85° ESE 02:21:45 10° NNE
STARLINK-37 3.6 02:13:33 13° SW 02:16:40 53° SE 02:20:13 10° ENE
STARLINK-1310 3.9 02:13:53 10° WSW 02:18:01 67° NNW 02:22:09 10° ENE
STARLINK-36 3.7 02:14:56 12° SW 02:18:06 51° SE 02:21:38 10° ENE
FALCON 9 DEB 3.2 02:14:58 10° WNW 02:18:23 57° SW 02:21:47 10° SE
STARLINK-1353 3.8 02:15:06 10° WNW 02:19:06 72° NNE 02:23:07 10° ESE
STARLINK-63 3.5 02:18:10 12° SW 02:21:27 57° SE 02:25:00 10° ENE
STARLINK-35 3.5 02:19:32 11° SW 02:22:48 56° SE 02:26:19 10° ENE
STARLINK-1319 4.0 02:18:52 10° WSW 02:22:58 63° NNW 02:27:06 10° ENE
STARLINK-1375 3.8 02:19:29 10° WNW 02:23:29 76° NNE 02:27:30 10° ESE
STARLINK-51 3.5 02:21:14 11° SW 02:24:36 58° SE 02:28:10 10° ENE
STARLINK-1028 4.2 02:21:25 10° SW 02:25:19 47° SE 02:29:19 10° ENE
Cosmos 2366 rocket 4.1 02:19:10 10° S 02:25:25 90° E 02:31:47 10° N
STARLINK-30 3.5 02:22:49 11° SW 02:26:16 60° SSE 02:29:52 10° ENE
Cosmos 2278 Rocket 4.3 02:22:29 10° NNW 02:27:36 33° NE 02:32:40 10° ESE
STARLINK-72 3.4 02:24:13 10° SW 02:27:40 61° SE 02:31:12 10° ENE
STARLINK-1350 3.7 02:23:49 10° WNW 02:27:51 80° NNE 02:31:52 10° ESE
STARLINK-1277 4.1 02:23:52 10° WSW 02:27:58 60° NNW 02:32:05 10° ENE
Shenzhou-11 Module 2.6 02:26:50 10° WSW 02:28:54 25° S 02:31:00 10° SE
STARLINK-1021 4.1 02:26:18 10° SW 02:30:19 51° SE 02:34:21 10° ENE
Cosmos 2058 4.3 02:27:09 10° SW 02:30:40 25° WNW 02:34:12 10° NNW
Cosmos 1933 3.7 02:26:41 10° N 02:30:44 71° E 02:34:43 10° SSE
STARLINK-59 3.3 02:27:28 10° SW 02:31:00 68° SSE 02:34:34 10° ENE
Cosmos 2360 Rocket 2.3 02:25:58 10° SW 02:31:34 70° WNW 02:37:14 10° NNE
STARLINK-1352 3.6 02:27:59 10° WNW 02:32:01 84° NNE 02:36:01 10° ESE
STARLINK-1010 4.0 02:28:25 10° SW 02:32:34 56° SE 02:36:43 10° ENE
STARLINK-56 3.4 02:29:10 10° SW 02:32:46 67° SSE 02:36:23 10° ENE
STARLINK-1276 4.1 02:28:54 10° W 02:33:00 57° NNW 02:37:06 10° ENE
Cosmos 1328 Rocket 3.6 02:29:51 10° N 02:34:16 86° E 02:38:38 10° S
STARLINK-73 3.4 02:30:48 10° SW 02:34:23 69° SSE 02:38:01 10° ENE
STARLINK-1019 4.0 02:31:11 10° SW 02:35:14 55° SE 02:39:18 10° ENE
STARLINK-38 3.3 02:32:25 10° SW 02:36:01 71° SSE 02:39:39 10° ENE
STARLINK-1368 3.6 02:32:40 10° WNW 02:36:44 89° NE 02:40:45 10° ESE
STARLINK-65 3.3 02:34:03 10° SW 02:37:39 73° SSE 02:41:18 10° ENE
STARLINK-1305 4.2 02:33:53 10° W 02:37:57 55° NNW 02:42:03 10° ENE
STARLINK-68 3.3 02:34:42 10° SW 02:38:21 78° SSE 02:42:01 10° ENE
STARLINK-1306 4.3 02:34:31 10° W 02:38:39 53° NNW 02:42:47 10° ENE
STARLINK-53 3.3 02:35:45 10° SW 02:39:22 78° SSE 02:43:00 10° ENE
STARLINK-1012 3.9 02:36:08 10° SW 02:40:13 59° SE 02:44:19 10° ENE
Cosmos 1980 Rocket 4.4 02:37:43 10° WNW 02:40:38 14° NW 02:43:34 10° N
STARLINK-1369 3.5 02:37:07 10° WNW 02:41:10 86° SSW 02:45:11 10° ESE
